Simultaneous Nadir Overpasses (SNOs) Predictions

Prediction of SNOs between NOAA-15 and METOP-C Satellite Orbit:

Table of predicted SNOs for the next 14.0 days since TLE Epoch: 5/3/2023
Index Date (NOAA-15) Time (NOAA-15) Lat,Lon (NOAA-15) SZA (NOAA-15 ) Date (METOP-C) Time (METOP-C) Lat,Lon (METOP-C) SZA (METOP-C ) Distance(km) Time Diff (sec)
1 05/16/2023 09:30:01 81.08, 75.88 64.09 05/16/2023 09:28:55 81.08, 75.75 64.04 2.59 66
2 05/16/2023 10:20:34 -81.08,-116.68 115.92 05/16/2023 10:19:35 -81.08,-116.86 115.96 3.00 59
3 05/16/2023 11:11:02 81.08, 50.65 64.08 05/16/2023 11:10:16 81.08, 50.61 64.05 0.68 46
4 05/16/2023 12:01:35 -81.08,-141.92 115.93 05/16/2023 12:00:56 -81.09,-141.99 115.95 1.47 39
5 05/16/2023 12:52:03 81.08, 25.41 64.06 05/16/2023 12:51:37 81.09, 25.47 64.06 1.35 26
6 05/16/2023 13:42:36 -81.08,-167.15 115.94 05/16/2023 13:42:17 -81.09,-167.13 115.94 1.60 19
7 05/16/2023 14:33:05 81.10, -0.20 64.02 05/16/2023 14:32:59 81.08, -0.04 64.02 3.15 6
8 05/16/2023 15:23:38 -81.09, 167.25 115.98 05/16/2023 15:23:39 -81.09, 167.36 115.98 2.07 1
9 05/16/2023 16:14:05 81.08, -25.07 64.03 05/16/2023 16:14:20 81.09, -25.18 64.04 2.31 15
10 05/16/2023 17:04:39 -81.09, 142.02 116.00 05/16/2023 17:05:01 -81.08, 141.85 116.02 3.24 22
11 05/16/2023 17:55:07 81.10, -50.68 63.99 05/16/2023 17:55:42 81.09, -50.69 64.00 1.33 35
12 05/16/2023 18:45:40 -81.09, 116.78 116.01 05/16/2023 18:46:22 -81.09, 116.71 116.01 1.35 42
13 05/16/2023 19:36:08 81.10, -75.91 63.98 05/16/2023 19:37:03 81.09, -75.83 64.01 1.45 55
14 05/16/2023 20:26:41 -81.09, 91.55 116.03 05/16/2023 20:27:43 -81.10, 91.57 116.00 0.59 62



Historial Predications of SNOs between NOAA-15 and METOP-C
